This demonstration page uses our WeatherBlox Daily Observations layout. Learn more.

Left ArrowRight Arrow

39.08367, -84.50855

Hourly Observations for February 7, 2016

Temp ( °F °C ) Dew Point ( °F °C ) Humidity (%) Winds ( mph kmh ) Pressure ( in mb ) Visibility ( mi km ) Precip ( " mm )
12:53 am 00:53 Clear 28 -2.2 25 -3.9 88 88 N N/A 30.24 1024 10 16 N/A
1:53 am 01:53 Clear 27 -2.8 25 -3.9 92 92 N N/A 30.22 1023 10 16 N/A
2:53 am 02:53 Clear 26 -3.3 25 -3.9 96 96 N N/A 30.21 1023 10 16 N/A
3:53 am 03:53 Clear 26 -3.3 24 -4.4 92 92 N N/A 30.19 1023 10 16 N/A
4:53 am 04:53 Clear 25 -3.9 24 -4.4 96 96 N N/A 30.18 1022 8 13 N/A
5:53 am 05:53 Clear 24 -4.4 23 -5 96 96 N N/A 30.16 1022 8 13 N/A
6:53 am 06:53 Clear 24 -4.4 23 -5 96 96 N N/A 30.15 1021 7 11 N/A
7:53 am 07:53 Sunny 24 -4.4 23 -5 96 96 N N/A 30.16 1021 10 16 N/A
8:53 am 08:53 Sunny 28 -2.2 28 -2.2 100 100 N N/A 30.15 1021 8 13 N/A
9:53 am 09:53 Sunny 36 2.2 30 -1.1 79 79 S 6 9 30.12 1020 10 16 N/A
10:53 am 10:53 Sunny 43 6.1 29 -1.7 58 58 S 6 9 30.11 1020 10 16 N/A
11:53 am 11:53 Sunny 49 9.4 24 -4.4 38 38 SW 10 17 30.08 1019 10 16 N/A
12:53 pm 12:53 Sunny 51 10.6 25 -3.9 36 36 SSW 16 26 30.04 1017 10 16 N/A
1:53 pm 13:53 Sunny 53 11.7 23 -5 31 31 SW 16 26 29.99 1016 10 16 N/A
2:53 pm 14:53 Sunny 54 12.2 24 -4.4 31 31 SSW 18 30 29.94 1014 10 16 N/A
3:53 pm 15:53 Sunny 52 11.1 23 -5 32 32 SSW 20 31 29.93 1013 10 16 N/A
4:53 pm 16:53 Sunny 51 10.6 23 -5 33 33 SW 14 22 29.91 1013 10 16 N/A
5:53 pm 17:53 Sunny 48 8.9 23 -5 37 37 SSW 16 26 29.90 1012 10 16 N/A
6:53 pm 18:53 Clear 44 6.7 24 -4.4 45 45 SSW 9 15 29.90 1013 10 16 N/A
7:53 pm 19:53 Clear 43 6.1 24 -4.4 47 47 SSW 8 13 29.88 1012 10 16 N/A
8:53 pm 20:53 Partly Cloudy 44 6.7 24 -4.4 45 45 S 9 15 29.86 1011 10 16 N/A
9:53 pm 21:53 Cloudy 45 7.2 23 -5 42 42 S 10 17 29.84 1010 10 16 N/A
10:53 pm 22:53 Cloudy 45 7.2 23 -5 42 42 S 10 17 29.81 1010 10 16 N/A
11:53 pm 23:53 Cloudy 44 6.7 24 -4.4 45 45 S 9 15 29.78 1009 10 16 N/A

Powered by AerisWeather